Temperature
20 20 20 20 23 24 23 22 22 22 22 21 20 21 21 21 21 19 16 16 16 16 16 17 17 17 17 17 17 17 17 17 17 17 17 16 16 16 16 16 16 17 17 17 17 17 17 17 17
20 20 20 22 24 24 22 22 22 21 21 20 20 20 20 19 18 17 16 16 16 16 16 16 17 17 17 17 17 16 16 16 16 16 16 16 16 16 16 16 16 16 16 16 17 17 17 17 17
20 20 21 24 23 23 22 22 21 21 20 20 20 19 19 18 17 17 16 16 16 16 16 16 17 17 16 16 16 16 16 16 16 16 16 16 16 16 16 16 16 16 16 16 17 17 17 17 17
20 21 22 24 23 22 22 21 21 21 20 20 20 19 18 17 17 16 16 16 16 16 16 16 16 16 16 16 16 16 16 16 16 16 16 16 16 16 16 16 16 16 16 16 16 17 17 17 17
20 23 24 23 22 22 22 21 21 21 21 20 20 19 17 16 16 16 16 16 16 16 16 16 16 16 16 16 16 16 16 16 16 16 16 16 16 16 16 16 16 16 16 16 16 16 16 16 17
22 24 24 23 22 21 21 20 20 21 20 20 19 19 17 16 16 16 16 16 16 16 16 16 16 16 16 16 16 16 16 16 16 16 16 16 16 16 16 16 16 16 16 16 16 16 16 16 16
23 24 23 23 22 21 21 20 21 20 20 19 19 19 17 17 16 16 16 16 16 16 16 16 16 16 16 16 16 16 16 16 16 16 16 16 16 16 15 16 16 16 16 16 16 16 16 16 16
21 24 23 23 22 21 21 20 20 20 19 18 19 19 18 17 16 16 16 16 16 16 16 16 16 16 16 16 16 16 16 16 16 16 16 16 16 15 15 15 16 16 16 16 16 16 16 16 16
21 24 23 23 22 22 21 20 19 19 19 18 18 18 17 17 16 16 16 16 16 16 16 16 16 16 16 16 16 16 16 16 16 16 16 15 15 15 15 15 16 16 16 16 16 16 16 16 16
22 23 22 22 23 22 21 21 20 20 19 19 18 17 17 17 17 17 17 17 17 16 16 16 16 16 16 16 16 16 15 15 15 15 15 15 15 15 15 15 15 16 16 16 16 16 16 16 16
22 22 22 21 21 21 21 20 20 20 20 19 18 17 17 17 17 17 17 17 17 17 16 16 16 16 16 16 16 16 15 15 15 15 15 15 15 16 15 15 15 15 15 15 15 16 16 16 16
22 21 21 21 20 21 21 20 20 20 19 19 18 17 17 17 18 17 17 17 17 17 16 16 16 16 16 16 16 16 15 15 15 15 15 15 15 15 15 15 15 15 15 15 15 16 16 16 16
22 21 20 20 20 20 20 20 20 19 18 18 17 17 17 18 18 17 17 17 17 16 16 16 16 16 16 16 16 16 15 15 15 15 15 15 15 15 15 15 15 15 15 15 15 16 16 16 16
21 20 20 20 20 20 20 19 19 18 18 18 17 17 17 17 18 18 17 17 17 17 16 16 16 16 16 16 16 16 15 15 15 15 15 15 15 15 15 15 15 15 15 15 15 15 15 15 15
20 21 20 20 20 20 20 20 19 18 18 18 18 18 17 17 17 18 18 17 17 17 16 16 16 16 16 16 16 15 15 15 15 15 15 15 15 15 15 15 15 15 15 15 15 15 15 15 15
21 21 20 20 20 20 21 19 19 18 18 18 18 18 17 17 17 18 17 17 17 17 17 16 16 16 16 16 16 15 15 15 15 15 15 15 15 15 15 15 15 15 15 15 15 15 15 15 15
21 20 20 20 20 21 21 20 19 18 18 19 18 18 18 18 18 18 17 17 17 17 16 16 16 16 16 16 16 15 15 15 15 15 15 15 15 15 15 15 15 15 15 15 15 15 15 15 15
20 20 20 20 20 20 20 20 20 18 19 19 19 19 19 18 18 18 17 17 17 17 16 16 16 16 16 16 16 15 15 15 15 15 15 15 15 15 15 15 15 15 15 15 15 15 15 15 15
21 21 20 20 20 20 20 20 20 19 19 19 20 19 19 19 18 18 17 17 17 17 16 16 16 16 16 16 15 15 15 15 15 15 15 15 15 15 15 15 15 15 15 15 15 14 15 15 15
21 20 20 20 20 20 20 20 20 20 19 20 20 20 19 19 18 18 17 17 17 17 17 16 16 16 16 16 15 15 15 15 15 15 15 15 15 15 15 15 15 15 15 15 15 15 15 15 15
20 20 20 20 20 20 20 20 20 20 20 19 19 20 20 19 19 18 18 17 17 17 17 17 16 16 16 16 15 15 15 15 15 15 15 15 15 15 15 15 15 15 15 15 15 14 14 14 14
20 20 20 20 20 20 21 20 21 21 20 20 20 20 20 19 19 18 18 18 17 17 17 17 16 16 16 16 16 15 15 15 15 15 15 15 15 15 15 15 15 15 15 15 14 14 14 14 14
20 20 20 20 20 21 21 21 22 21 21 21 21 20 20 19 19 18 18 18 17 17 17 17 16 16 16 16 16 15 15 15 15 15 15 15 15 15 15 15 15 14 14 14 14 14 14 14 14
20 20 20 21 21 21 21 21 22 22 22 22 22 21 20 19 19 18 18 18 17 17 17 17 17 16 16 16 16 16 15 15 15 15 15 15 15 15 15 15 15 14 14 14 14 14 14 14 14
21 21 20 20 21 21 22 22 22 24 23 23 22 21 20 20 19 19 18 18 17 17 17 17 17 17 16 16 16 16 16 15 15 15 15 15 15 15 15 15 14 14 14 14 14 14 14 14 14
21 21 21 21 21 22 22 22 24 24 23 22 22 21 20 20 19 19 18 18 17 17 17 17 17 17 16 16 16 16 16 16 15 15 15 15 15 15 15 15 15 15 14 14 14 14 14 14 14
21 22 22 22 22 22 23 23 24 23 23 22 21 21 20 20 19 19 18 18 18 17 18 17 17 17 17 16 16 16 16 16 15 15 15 15 15 15 15 15 15 14 14 14 14 14 14 14 14
22 22 22 22 22 22 23 23 24 24 23 23 22 21 20 20 19 18 18 18 18 18 18 17 17 17 17 16 16 16 16 16 16 15 15 15 15 15 15 14 14 14 14 14 14 14 14 14 14
21 22 22 22 22 22 22 23 24 23 23 23 22 21 20 19 19 18 18 18 18 18 18 18 17 17 17 16 16 16 16 16 16 16 15 15 15 15 15 14 14 14 14 14 14 14 14 14 14
22 22 22 22 22 22 23 23 24 23 23 22 22 21 20 19 19 18 18 18 18 18 18 17 17 17 17 17 16 16 16 16 16 16 15 15 15 15 15 14 14 14 14 14 14 14 14 13 13
Wind_Speed
2 1 2 2 2 2 4 4 3 4 4 5 6 6 7 6 5 6 4 5 7 7 8 10 11 12 13 13 13 13 12 12 12 11 11 10 10 10 10 9 9 9 9 9 8 8 7 7 7
1 2 2 2 1 3 4 4 5 5 6 7 6 6 7 6 7 7 5 6 8 9 9 11 12 12 13 13 13 13 12 12 11 11 10 10 10 10 9 9 9 9 9 9 8 8 7 7 7
2 2 1 0 1 3 4 5 7 8 7 5 5 5 5 5 6 5 7 8 9 10 11 12 12 13 13 13 13 12 11 11 11 11 10 10 10 9 9 9 9 8 8 8 8 7 7 7 6
2 2 1 2 6 5 5 6 7 8 6 5 6 7 6 5 4 7 9 9 10 10 11 13 12 13 13 13 12 12 11 11 10 10 10 10 9 9 8 8 8 8 8 8 7 7 6 6 6
2 1 2 4 6 5 6 4 4 5 5 6 7 8 7 6 10 11 10 10 10 11 11 13 13 13 13 12 12 11 11 11 10 10 9 9 9 8 8 8 7 7 7 7 7 6 6 5 6
1 1 3 5 7 6 5 4 5 7 8 8 8 9 6 8 11 11 11 10 11 10 11 13 13 12 12 12 11 11 11 10 10 9 9 9 9 8 8 8 7 7 6 6 6 6 5 6 6
0 1 3 6 7 6 5 4 4 6 8 6 6 8 7 9 10 10 10 10 10 10 9 10 11 12 12 11 11 11 10 10 10 9 8 8 8 9 8 8 7 7 6 6 7 6 6 6 7
1 2 5 5 7 6 6 5 5 6 7 6 4 7 9 10 10 10 10 10 9 9 8 8 9 9 10 11 11 10 10 9 9 8 8 6 5 6 5 6 8 7 6 6 6 6 7 7 7
1 2 3 4 5 6 8 7 5 5 8 6 5 8 12 13 11 10 10 9 8 8 7 7 8 8 8 8 8 8 8 7 5 6 6 2 5 6 5 10 9 7 7 7 7 6 6 6 7
0 2 3 3 4 7 8 7 7 6 9 9 11 12 13 12 11 10 9 9 8 8 7 7 7 7 7 6 6 6 6 6 6 6 6 5 6 5 5 7 7 7 6 6 6 4 3 2 5
2 3 5 5 6 8 9 8 6 8 8 10 14 15 13 12 10 9 9 8 8 7 7 6 6 6 6 5 5 5 5 5 6 6 6 5 5 4 4 4 4 4 3 5 4 3 4 5 6
5 7 5 7 7 7 8 8 7 6 7 10 13 14 12 11 9 8 8 8 7 7 7 6 5 6 5 5 5 4 4 4 5 6 6 5 5 4 5 4 4 4 4 4 4 4 5 6 7
7 7 8 9 9 9 10 9 8 8 9 11 13 12 11 10 9 8 7 7 8 7 7 6 4 5 5 5 3 4 4 4 5 5 5 5 4 4 4 4 4 4 4 4 4 5 6 6 7
8 10 10 9 8 8 10 9 7 8 11 13 13 11 10 9 8 8 7 7 7 7 6 5 4 4 4 4 4 4 4 4 5 5 5 6 5 4 4 4 4 4 4 4 4 5 5 5 6
9 10 9 6 6 6 9 7 7 9 11 12 12 10 9 8 7 7 7 7 7 7 6 5 4 4 4 4 5 4 4 5 5 5 6 6 5 4 4 4 3 3 3 3 4 5 5 5 6
5 5 5 5 4 3 5 7 7 9 11 11 10 10 9 8 7 7 7 7 7 6 6 5 4 4 5 4 4 4 5 5 5 5 5 6 6 5 4 4 4 3 3 3 3 3 4 5 5
3 4 5 5 3 4 4 7 8 8 10 10 10 10 9 9 8 7 7 7 7 6 6 5 5 5 5 5 5 5 5 5 5 5 6 6 6 5 5 4 3 3 3 2 3 3 3 5 5
5 5 5 4 3 5 5 6 8 8 9 9 10 10 9 9 8 8 7 7 6 6 6 5 5 5 5 5 5 4 5 5 5 5 6 7 6 6 5 4 4 4 3 2 3 4 4 4 4
5 5 4 3 3 4 5 6 7 9 10 10 10 10 9 9 8 8 8 7 7 7 6 6 6 5 5 4 3 3 3 3 4 5 6 6 6 6 6 4 4 3 3 3 3 4 5 4 4
5 6 5 4 3 3 5 5 7 9 10 10 10 10 10 10 10 9 9 8 8 7 7 6 6 5 4 3 3 2 3 3 4 4 5 5 5 6 5 5 4 3 3 3 3 2 3 3 1
3 3 4 4 4 4 4 5 7 8 9 9 10 10 11 11 11 11 10 9 8 8 7 6 6 6 5 4 3 3 3 2 3 3 3 4 5 5 5 5 4 4 3 3 2 2 2 2 2
3 2 4 4 4 3 4 3 7 10 10 11 12 12 13 12 11 11 11 10 9 8 7 7 6 6 5 5 4 3 2 2 2 2 3 3 4 5 5 5 5 4 4 3 3 2 1 1 2
4 4 3 2 2 2 3 3 4 9 11 13 14 14 14 14 13 13 12 11 10 9 8 7 7 6 5 5 4 3 2 2 2 2 3 3 4 4 4 4 4 4 4 4 4 3 3 2 2
7 5 3 2 3 2 3 3 2 7 11 12 14 15 15 15 14 13 11 10 10 9 8 7 7 6 5 5 5 4 3 3 3 2 2 2 2 3 4 3 3 4 4 4 4 4 4 3 3
4 3 2 3 3 1 2 3 2 3 6 9 12 15 16 16 15 14 13 12 11 10 9 8 8 7 6 6 5 5 4 4 3 3 2 2 2 2 3 3 3 3 4 4 4 4 4 4 4
4 3 2 1 0 1 3 2 0 1 3 6 8 11 15 15 14 14 14 13 12 11 10 9 9 8 7 7 6 5 5 4 3 3 2 2 1 2 2 3 3 4 4 4 4 3 4 3 4
3 3 2 2 1 1 2 1 1 2 3 5 8 10 14 15 15 14 13 13 12 12 11 10 9 8 8 7 6 5 5 5 4 4 3 2 2 2 2 3 3 4 4 3 3 3 4 3 3
2 2 3 3 1 1 2 2 1 1 1 4 7 10 13 14 15 14 13 12 11 11 10 10 9 8 8 7 6 5 5 5 4 4 4 3 3 3 3 3 3 4 4 4 3 3 3 4 4
4 4 3 2 3 2 1 2 2 3 2 3 5 9 12 14 14 14 13 12 11 10 10 9 9 8 7 7 6 6 5 5 5 4 4 4 3 4 3 3 3 3 3 4 3 3 3 3 4
4 4 4 3 1 2 2 1 2 2 2 3 4 7 9 11 12 12 12 12 11 11 10 10 9 8 8 7 7 7 6 6 5 5 5 5 4 4 4 4 3 3 3 3 3 3 2 2 2
Wind_Direction
242 188 219 238 208 114 83 78 94 108 94 86 86 82 80 56 47 86 98 103 103 102 99 101 95 96 96 94 93 92 90 87 84 82 81 80 78 75 74 74 71 67 64 62 63 66 68 66 64
212 183 228 243 230 122 95 97 105 89 107 110 87 83 79 70 66 92 106 104 107 103 99 94 93 95 95 94 92 89 87 84 81 77 76 76 74 71 69 68 67 64 60 56 56 61 62 62 59
164 227 253 188 84 75 100 101 105 101 106 110 91 71 65 80 87 96 110 115 107 99 96 94 93 93 93 91 88 86 84 82 78 74 71 72 73 71 69 66 63 61 57 54 55 58 59 57 56
214 202 178 106 93 71 96 114 119 120 107 92 105 88 75 62 86 108 116 115 106 98 95 94 91 91 90 88 86 83 80 78 77 73 70 69 69 65 62 60 56 57 57 55 54 55 59 56 56
234 222 151 116 98 92 97 108 135 124 118 112 107 98 86 80 103 111 114 110 103 97 94 95 91 90 88 86 85 83 80 77 74 70 68 65 63 61 57 52 51 53 55 55 55 57 61 60 61
212 207 159 128 113 110 106 114 123 114 113 114 109 103 86 109 110 111 111 107 102 99 98 100 96 91 87 85 84 80 76 73 70 67 64 61 57 55 54 50 48 51 54 55 57 61 65 66 66
294 129 129 127 128 126 113 113 124 120 115 104 111 107 113 117 112 115 113 107 103 100 97 98 102 101 96 86 79 75 71 67 65 61 59 58 56 53 50 51 50 51 53 57 63 64 70 74 71
1 141 134 136 138 122 122 116 108 111 106 104 108 119 131 129 126 120 114 110 107 105 100 97 97 96 97 94 82 72 66 63 62 59 54 58 79 77 61 61 55 55 57 59 65 68 73 81 77
266 166 138 133 137 127 136 130 111 107 114 102 88 105 123 129 131 126 122 117 111 106 103 101 96 91 87 86 86 83 80 67 72 79 69 43 54 56 67 54 54 59 59 59 60 68 82 99 100
346 122 89 93 118 131 137 129 129 130 119 115 109 112 124 135 138 134 129 123 119 115 109 105 102 99 93 85 84 73 72 64 55 51 54 53 54 49 49 85 71 65 66 77 66 77 134 164 102
66 84 96 104 113 127 129 124 129 135 128 133 133 136 140 142 141 135 127 120 116 116 111 104 102 99 93 90 79 67 65 64 59 52 57 54 53 57 50 61 83 77 67 68 85 103 73 76 70
100 88 96 110 116 126 127 126 122 118 119 131 135 138 141 144 141 139 132 124 125 118 110 104 102 102 94 87 81 73 69 61 57 51 46 45 44 39 46 47 50 55 60 55 62 67 78 77 79
103 102 94 103 107 111 114 112 110 104 117 130 135 141 144 146 146 140 133 132 130 127 119 106 100 90 89 83 80 75 62 51 63 49 41 43 40 41 47 58 55 52 58 73 71 70 73 75 72
108 108 103 103 108 111 114 110 111 115 131 136 142 146 147 148 150 146 146 143 137 133 123 114 105 97 94 95 91 70 63 64 54 48 43 40 43 40 38 56 58 54 54 59 74 81 84 79 77
122 114 105 99 109 120 122 110 117 135 144 144 148 149 148 151 158 157 152 148 140 136 130 122 112 105 95 87 81 73 65 65 60 49 40 44 41 38 42 47 58 58 69 79 76 91 89 90 89
128 128 127 114 125 147 160 130 131 150 154 152 155 155 157 161 167 160 153 153 148 146 138 131 126 112 99 94 90 80 70 65 59 51 40 40 40 42 46 47 51 52 67 84 88 92 100 92 84
143 138 129 122 120 150 158 141 149 160 163 162 166 166 166 167 171 165 161 160 156 155 149 140 124 115 110 104 99 85 77 66 58 51 42 37 38 40 55 46 40 56 71 79 93 93 98 97 91
147 140 137 130 131 153 149 143 155 169 174 173 172 172 173 173 175 170 166 163 160 161 155 141 132 127 121 113 104 95 81 70 59 52 44 38 38 39 47 57 52 55 77 83 98 104 97 98 102
145 140 127 106 133 164 157 154 168 177 183 181 179 179 181 180 177 175 173 169 166 166 162 154 152 142 137 124 117 107 91 76 67 55 46 44 46 44 48 49 55 51 72 80 103 115 119 113 117
137 132 116 109 128 165 163 165 174 187 195 192 189 188 186 185 183 181 182 177 179 174 173 168 166 161 155 138 123 107 99 83 73 66 54 44 48 44 44 51 60 63 76 83 95 122 126 117 127
140 148 126 126 134 151 167 176 188 190 198 202 206 200 195 194 191 186 187 184 185 184 180 177 175 169 168 156 135 127 118 122 106 86 64 48 47 47 45 50 56 55 65 79 84 115 142 136 98
129 132 140 150 172 168 210 193 194 193 199 206 205 204 201 198 196 191 191 191 189 186 181 180 178 176 172 169 167 160 155 123 91 84 88 82 65 58 50 56 58 62 62 71 73 79 99 128 128
111 129 141 166 196 195 201 230 180 187 206 212 207 205 203 200 198 196 195 194 189 182 181 182 177 179 180 185 180 188 166 124 119 115 108 94 77 67 63 58 61 65 68 70 67 64 62 73 66
135 139 143 197 226 216 195 228 188 192 210 208 203 202 201 201 200 199 194 190 188 182 180 183 183 184 183 190 193 196 177 164 154 150 131 118 103 85 75 71 74 72 73 74 72 73 71 61 64
183 192 187 189 203 168 145 238 232 190 210 209 203 199 198 197 197 195 192 192 190 187 186 186 188 188 187 193 200 199 193 190 183 173 153 147 119 102 89 90 86 81 81 80 79 80 73 74 72
197 249 292 290 208 131 187 231 152 148 216 210 204 198 194 193 195 194 193 193 193 191 190 190 193 193 190 197 202 202 194 199 190 189 179 168 134 112 109 108 104 100 98 100 93 87 83 80 84
190 229 308 296 261 232 167 193 205 177 188 191 192 190 191 191 192 192 192 192 192 192 193 193 195 196 194 199 203 204 201 199 192 192 190 177 166 150 147 137 127 121 116 111 109 97 97 91 88
245 212 230 261 255 169 155 177 102 117 170 175 186 189 189 188 189 189 189 189 189 189 191 193 198 198 194 196 199 200 203 199 194 193 191 189 183 171 171 164 149 138 131 124 115 108 100 106 98
183 203 237 259 291 296 149 100 36 333 294 216 194 188 186 186 187 187 186 187 185 184 186 190 193 194 192 193 191 190 192 192 193 196 191 191 185 180 180 177 170 156 149 142 135 127 120 118 113
231 233 233 261 253 288 290 73 59 319 292 220 195 181 180 183 185 185 182 181 182 184 187 191 193 193 192 191 188 189 184 187 193 193 193 191 188 189 190 183 183 170 163 160 155 152 139 131 120
Height
1514 1514 1514 1516 1514 1514 1519 1521 1519 1522 1524 1527 1528 1528 1529 1532 1534 1543 1544 1543 1544 1544 1545 1545 1545 1546 1546 1546 1546 1546 1546 1547 1547 1547 1547 1546 1546 1546 1545 1545 1545 1544 1544 1544 1544 1543 1543 1543 1543
1515 1514 1516 1516 1512 1518 1524 1521 1522 1524 1527 1529 1530 1531 1532 1536 1539 1541 1543 1544 1545 1546 1546 1546 1546 1547 1547 1548 1548 1548 1548 1548 1548 1548 1548 1547 1547 1547 1546 1546 1546 1545 1545 1545 1544 1544 1544 1544 1544
1515 1515 1517 1514 1515 1519 1524 1523 1524 1527 1529 1530 1532 1534 1536 1539 1541 1543 1544 1545 1546 1547 1547 1547 1548 1549 1549 1549 1549 1549 1549 1549 1549 1549 1549 1549 1548 1548 1548 1547 1547 1547 1546 1546 1545 1545 1545 1545 1545
1516 1517 1517 1515 1520 1522 1522 1525 1527 1528 1531 1532 1533 1536 1540 1543 1543 1544 1545 1547 1548 1549 1549 1549 1550 1550 1550 1551 1551 1551 1551 1551 1551 1550 1550 1550 1550 1549 1549 1549 1548 1548 1547 1547 1546 1546 1546 1546 1545
1516 1516 1514 1518 1522 1523 1525 1527 1528 1528 1531 1533 1534 1538 1542 1545 1545 1546 1547 1549 1550 1551 1551 1552 1551 1552 1552 1552 1553 1553 1553 1552 1552 1552 1552 1552 1551 1551 1550 1550 1549 1549 1549 1548 1548 1547 1547 1547 1547
1517 1514 1515 1520 1524 1525 1527 1529 1529 1530 1533 1535 1537 1539 1545 1547 1547 1548 1549 1551 1552 1553 1554 1554 1553 1554 1554 1554 1555 1555 1554 1554 1554 1554 1553 1553 1553 1552 1552 1551 1551 1550 1550 1549 1549 1548 1548 1548 1548
1517 1513 1516 1519 1524 1526 1529 1530 1531 1532 1534 1537 1539 1541 1546 1548 1549 1550 1551 1552 1554 1555 1555 1557 1557 1557 1557 1557 1556 1556 1556 1556 1556 1555 1555 1554 1554 1554 1553 1552 1552 1551 1551 1551 1550 1550 1549 1549 1549
1517 1515 1518 1519 1523 1527 1530 1532 1533 1534 1536 1539 1540 1542 1546 1550 1551 1552 1553 1555 1556 1557 1558 1558 1559 1560 1560 1560 1559 1558 1558 1558 1557 1557 1556 1556 1556 1555 1555 1554 1553 1553 1552 1552 1551 1551 1551 1550 1550
1517 1517 1519 1521 1523 1527 1531 1533 1536 1537 1538 1540 1542 1544 1547 1550 1552 1554 1556 1557 1558 1559 1560 1561 1561 1561 1561 1562 1561 1560 1560 1559 1559 1559 1558 1558 1558 1558 1557 1555 1554 1554 1554 1553 1553 1552 1552 1552 1551
1518 1518 1521 1523 1523 1526 1530 1533 1536 1538 1539 1542 1544 1547 1549 1552 1554 1556 1557 1559 1560 1561 1562 1563 1563 1563 1563 1563 1563 1563 1563 1562 1562 1561 1560 1560 1559 1558 1558 1556 1556 1555 1555 1555 1554 1554 1554 1554 1554
1519 1521 1524 1526 1527 1529 1531 1534 1536 1537 1540 1543 1545 1548 1551 1554 1556 1558 1559 1560 1562 1563 1563 1564 1565 1565 1565 1565 1565 1564 1564 1563 1563 1562 1562 1561 1560 1560 1559 1559 1558 1557 1557 1557 1556 1556 1556 1556 1556
1522 1525 1526 1528 1530 1531 1533 1535 1538 1539 1542 1545 1547 1550 1553 1555 1558 1559 1561 1562 1563 1564 1565 1565 1566 1566 1566 1566 1566 1566 1566 1565 1565 1564 1563 1563 1562 1561 1560 1560 1559 1559 1558 1557 1558 1557 1558 1558 1558
1524 1528 1530 1531 1532 1534 1535 1537 1540 1543 1545 1546 1549 1552 1555 1557 1559 1561 1562 1563 1565 1565 1566 1567 1567 1567 1568 1567 1567 1567 1567 1567 1566 1565 1564 1564 1563 1562 1561 1561 1560 1560 1560 1559 1559 1559 1559 1559 1559
1528 1529 1532 1534 1535 1536 1537 1540 1542 1546 1547 1549 1551 1554 1556 1558 1560 1562 1563 1565 1566 1567 1567 1567 1568 1568 1569 1569 1569 1568 1568 1567 1567 1566 1566 1565 1564 1563 1562 1562 1561 1561 1561 1560 1560 1560 1560 1560 1560
1529 1530 1533 1535 1536 1538 1539 1542 1544 1547 1549 1551 1553 1555 1557 1559 1561 1563 1564 1566 1567 1568 1568 1569 1569 1569 1570 1570 1570 1569 1569 1569 1568 1567 1567 1566 1565 1564 1563 1563 1562 1562 1561 1562 1562 1562 1561 1561 1561
1529 1531 1535 1537 1537 1539 1540 1546 1547 1548 1550 1552 1553 1556 1558 1560 1562 1564 1565 1566 1568 1568 1569 1570 1570 1570 1570 1570 1570 1570 1570 1570 1569 1568 1568 1567 1566 1565 1564 1563 1563 1562 1562 1562 1562 1563 1563 1563 1562
1530 1534 1536 1538 1537 1538 1539 1543 1547 1549 1550 1552 1554 1556 1558 1560 1562 1564 1566 1567 1568 1569 1570 1571 1571 1571 1571 1571 1571 1571 1571 1570 1570 1569 1568 1568 1567 1566 1565 1564 1563 1563 1563 1563 1563 1563 1564 1564 1563
1533 1534 1536 1537 1538 1538 1540 1543 1546 1549 1550 1552 1554 1556 1558 1560 1562 1564 1566 1567 1568 1569 1571 1571 1571 1572 1572 1572 1572 1572 1572 1572 1571 1570 1569 1568 1568 1567 1566 1565 1564 1564 1564 1563 1564 1563 1564 1564 1565
1529 1532 1536 1537 1538 1539 1540 1542 1545 1548 1550 1551 1553 1555 1557 1560 1562 1564 1565 1566 1568 1569 1571 1571 1572 1572 1573 1573 1573 1573 1573 1573 1572 1571 1570 1569 1568 1568 1567 1566 1565 1565 1564 1564 1565 1565 1565 1565 1566
1530 1534 1537 1539 1539 1539 1541 1542 1544 1546 1548 1549 1551 1553 1556 1559 1561 1563 1565 1566 1568 1569 1570 1572 1572 1573 1573 1573 1574 1574 1573 1573 1572 1572 1571 1570 1570 1569 1568 1567 1566 1566 1565 1565 1565 1565 1566 1566 1566
1533 1535 1536 1539 1540 1540 1541 1544 1543 1544 1547 1549 1550 1552 1554 1557 1559 1562 1564 1565 1567 1568 1570 1571 1572 1573 1573 1574 1574 1574 1574 1574 1574 1573 1572 1571 1571 1570 1569 1568 1567 1567 1567 1566 1566 1566 1566 1566 1567
1536 1535 1536 1538 1539 1541 1541 1545 1539 1539 1542 1545 1547 1550 1551 1555 1557 1560 1562 1564 1566 1568 1569 1571 1572 1573 1573 1574 1574 1575 1575 1575 1574 1574 1573 1572 1571 1571 1570 1569 1568 1568 1567 1567 1567 1566 1566 1567 1567
1535 1535 1536 1537 1538 1539 1538 1541 1536 1535 1538 1539 1542 1545 1548 1552 1555 1557 1560 1562 1565 1567 1568 1570 1571 1572 1573 1574 1574 1574 1575 1575 1575 1574 1574 1573 1572 1571 1571 1570 1569 1569 1568 1568 1567 1567 1567 1567 1568
1535 1536 1537 1536 1536 1542 1536 1538 1536 1529 1530 1532 1536 1540 1544 1548 1552 1555 1558 1560 1563 1565 1567 1568 1570 1571 1572 1573 1574 1574 1575 1575 1575 1575 1574 1574 1573 1572 1571 1571 1570 1570 1569 1568 1568 1568 1567 1567 1567
1534 1537 1543 1544 1543 1539 1532 1535 1530 1521 1524 1527 1531 1535 1540 1545 1549 1552 1555 1558 1560 1563 1565 1567 1569 1570 1571 1572 1573 1574 1574 1575 1575 1575 1574 1574 1574 1573 1572 1572 1571 1570 1570 1569 1569 1568 1568 1568 1568
1533 1534 1542 1547 1543 1536 1532 1531 1522 1520 1523 1526 1528 1532 1536 1541 1545 1549 1552 1555 1558 1560 1563 1565 1567 1569 1570 1572 1573 1574 1574 1574 1574 1574 1574 1574 1574 1573 1572 1572 1571 1571 1570 1570 1569 1569 1569 1569 1568
1532 1532 1530 1532 1533 1535 1528 1524 1519 1519 1521 1523 1526 1529 1533 1537 1541 1545 1549 1552 1555 1558 1560 1563 1565 1567 1569 1570 1572 1572 1573 1573 1573 1573 1574 1574 1573 1573 1572 1572 1572 1571 1571 1570 1570 1570 1570 1569 1569
1530 1529 1531 1532 1538 1538 1531 1525 1521 1517 1518 1520 1523 1526 1530 1534 1539 1542 1546 1549 1552 1555 1558 1561 1563 1565 1567 1568 1570 1571 1571 1572 1572 1573 1573 1573 1573 1572 1572 1572 1572 1571 1571 1571 1571 1571 1570 1570 1570
1531 1531 1530 1529 1530 1535 1537 1528 1515 1516 1517 1518 1521 1524 1527 1531 1535 1539 1543 1546 1550 1553 1556 1558 1561 1563 1565 1566 1568 1569 1570 1570 1571 1571 1571 1571 1571 1571 1571 1572 1572 1571 1571 1571 1571 1571 1571 1571 1571
1526 1526 1527 1532 1531 1530 1530 1527 1514 1515 1517 1518 1520 1523 1526 1529 1533 1537 1541 1544 1548 1551 1554 1556 1559 1561 1563 1564 1566 1567 1568 1569 1569 1569 1570 1570 1570 1570 1571 1571 1571 1571 1571 1571 1571 1571 1571 1571 1571